SL-14 DEB, 45298

Orbit data source: Space-Track

SL-14 DEB, 45298 is space debris in LEO originally from a launch on Thu, 15 Aug 1991 UTC launched from the Plesetsk Missile And Space Complex (PKMTR). Debris objects in space refer to the collection of defunct objects orbiting the Earth. Examples of debris include non-operational satellites, rocket bodies, and fragments generated from explosions, collisions, or faulty payload assembly.

Loading next visibility...
Identifier
45298, 1991-056AL
Orbit
LEO
Country
Flag of CISCIS
Related business
Manufacturer
Unknown
Mission
Spacecraft
Bus & Motor
Unknown
Mass
Unknown
Launch date (UTC)
1991-08-15 (35 years ago)
Launch vehicle
Unknown
Launch site
Plesetsk Missile And Space Complex (PKMTR)
Object type
Payload
Rocket body
Debris
Shape & HBR
Unknown shape, 0.3 m
Radar Cross Section
Medium (>0.1 m² and <1 m²)

Expand to show TLE details & history
Last TLE update: 8 hours ago

TLE from 8 hours ago
0 SL-14 DEB
1 45298U 91056AL  26126.55794556  .00005413  00000-0  61010-2 0  9995
2 45298  82.5906  66.7138 0141563 153.9972 206.8381 13.66278442306254
Epoch: 2026-05-06T13:23Z
TLE epoch observation values (Epoch: 2026-05-06T13:23:26.496Z)
Latitude
-0.00009°
Longitude
1.43667°
Altitude
1,109.517 km
Speed
7.251 km/s
True Right ascension
04h 26m 51s
True Declination
0° 00' 00"
Sunlit
Object was in daylight at epoch
Visualization orbit readout
Latitude
Unknown
Longitude
Unknown
Altitude
Unknown
Speed
Unknown
Apparent Right ascension
Unknown
Apparent Declination
Unknown
Sunlit
N/A
Visualization observer readout
Local Sidereal Time
05:42:23
Azimuth
Unknown
Elevation
Unknown
Doppler factor
Unknown
Orbital elements
Apogee altitude
1,114.727 km
Perigee altitude
905.545 km
Semi-major axis
7,388.273 km
Eccentricity
0.01416
Inclination
82.5906°
RAAN
66.7138°
Arg. of periapsis
153.9972°
True anomaly
206.11714°
Mean anomaly
206.8381°
Eccentric anomaly
206.47649°
Mean motion
3.41766 °/min
Orbital period
105.34 mins
BSTAR
0.006101
Loading maneuver chart data...
Computing Atmospheric mass density...
Loading historical data...
Loading historical data...
Loading historical data...
Loading historical data...
Loading historical data...
Loading historical data...
Loading historical data...

Documentation

Showing up to 5 results
|